Location: Newark
(7.1028°S, 35.3258°W)
Time: 02:55:25
(UTC+00:00)

X-37B - Pass Details

Date: 04 March 2021
Orbit: 380 x 394 km, 45.0° (Epoch: 07 April)

Event Time Altitude Azimuth Distance (km) Brightness Sun altitude
Rises 20:56:25 0° 218° (SW) 2,262 5.2 -5.0°
Reaches altitude 10° 20:58:30 10° 214° (SW) 1,408 4.0 -5.6°
Maximum altitude 21:01:38 59° 133° (SE) 449 0.7 -6.3°
Drops below altitude 10° 21:04:46 10° 52° (NE) 1,406 2.9 -7.1°
Enters shadow 21:05:31 - 51° (NE) 1,714 3.3 -7.3°
